星链-35105(STARLINK-35105)

导读 | 豆包AI

STARLINK-35105是美国太空探索技术公司(SpaceX)星链(Starlink)项目中的一颗卫星,于2025年9月6日由猎鹰九号火箭从肯尼迪航天中心发射升空,属于Starlink 10-57任务批次,是本次任务携带的28颗星链V2 Mini卫星之一。星链项目旨在构建全球卫星互联网星座,为全球偏远地区等基础设施匮乏区域提供高速低延迟宽带互联网服务,该卫星入轨后将进一步拓展星链星座的全球覆盖能力与服务容量。

基本信息
目录编号:
65543
目录名称:
STARLINK-35105
国际标识:
2025-200Z
轨道中心:
EARTH
卫星名称:
星链-35105
卫星全名:
星链-35105(STARLINK-35105)
卫星状态:
在轨 (已飞行189 天)
发射日期:
2025-09-06 UTC
国别 :
美国 (US)
星等 :
--
轨道信息
数据来源 国际轨道数据
星历时间: 2026-03-14T06:43:34+0800
12小时前
查看轨道信息
半长轴: 6927.616km
偏心率: 0.0001086
轨道倾角: 97.605°
近地点辐角 246.878°
升交点赤经 144.029°
平近点角 113.234°
近地点: 548.726km
远地点: 550.232km
周期: 95.639分钟
每日圈数: 15.056608
详细信息
固有亮度:
5
最大亮度:
2.5
卫星平台:
Starlink V1.0
覆盖范围:
全球
运营商:
太空探索技术公司
运营商所在国:
美国
制造商(研发单位):
太空探索技术公司
制造商所在国:
美国
使用方式:
暂无
卫星简介
Starlink 计划是 SpaceX 推出的全球卫星互联网项目,通过发射低轨道卫星,为全球尤其是偏远地区提供高速、低延迟的互联网服务。自 2019 年起,Starlink 已部署数千颗卫星,旨在缩小全球数字鸿沟,推动互联网普及。该项目还为军事、航空等行业提供通信支持,带来广泛经济效益。
2D轨道图
3D轨道图
轨道高度分析图
轨道倾角分析图
轨道综合分析图
查看轨道综合分析图